#timestamp,LO_Frequency,Hit 
1505314815.8,286046995.3,N
1505314835.6,286046998.0,N
1505314855.5,286046995.8,N
1505314875.3,286046993.5,N
1505314895.1,286046994.3,N
1505314915.9,286046994.6,N
1505314935.7,286046992.4,N
1505314955.5,286046991.7,P
1505314975.4,286046999.6,N
1505314995.2,286046996.9,N
1505315015.0,286046997.9,N
1505315015.9,286046997.9,N
1505315035.8,286046996.5,N
1505315055.6,286046995.2,N
1505315075.4,286046997.5,N
1505315095.3,286047000.3,N
1505315115.1,286046997.0,N
1505315116.0,286046997.0,N
1505315135.8,286046996.2,N
1505315155.7,286046997.3,N
1505315175.5,286046997.8,N
1505315195.3,286046995.4,N
1505315215.2,286046993.9,P
1505315235.9,286046998.5,N
1505315255.7,286047000.4,N
1505315275.6,286047004.1,N
1505315295.4,286047003.5,N
1505315315.2,286047004.7,N
1505315335.1,286047004.1,N
1505315336.0,286047004.1,N
1505315355.8,286046999.8,N
1505315375.6,286047004.8,N
1505315395.5,286047009.8,N
1505315415.3,286047006.7,N
1505315435.1,286047004.8,N
1505315455.9,286047005.5,N
1505315475.7,286047006.0,N
1505315495.5,286047004.1,N
1505315515.3,286046999.3,N
1505315535.2,286047000.3,N
1505315555.0,286047001.9,N
1505315555.9,286047001.9,N
1505315575.7,286047003.0,N
1505315595.6,286047004.1,N
1505315615.4,286047001.1,N
1505315635.2,286046998.2,N
1505315655.1,286046997.3,N
1505315656.0,286046997.3,N
1505315675.8,286047002.7,N
1505315695.6,286047001.9,N
1505315715.5,286047003.2,N
1505315735.3,286047001.9,N
1505315755.1,286047005.6,N
1505315775.9,286047007.6,N
1505315795.7,286047006.8,N
1505315815.5,286047011.6,P
1505315835.4,286047004.6,N
1505315855.2,286047004.0,N
1505315875.0,286047002.0,N
1505315875.9,286047002.0,N
1505315895.8,286047001.3,N
1505315915.6,286046998.9,N
1505315935.4,286046998.7,N
1505315955.3,286046999.4,N
1505315975.1,286046999.7,N
1505315976.0,286046999.7,N
1505315995.8,286047000.7,N
1505316015.6,286046998.7,N
1505316035.5,286046999.4,N
1505316055.3,286046995.9,N
1505316075.1,286046996.4,N
1505316095.9,286046994.8,N
1505316115.7,286046994.6,N
1505316135.5,286046995.0,N
1505316155.4,286046995.0,N
1505316175.2,286046998.3,N
1505316195.0,286046998.3,N
1505316195.9,286046998.3,N
1505316215.8,286046999.4,N
1505316235.6,286046998.2,N
1505316255.4,286046995.2,N
1505316275.3,286046995.2,N
1505316295.1,286046995.5,N
1505316296.0,286046995.5,N
1505316315.8,286046997.5,N
1505316335.7,286046998.9,N
1505316355.5,286046999.5,N
1505316375.3,286046998.8,N
1505316395.2,286046997.0,N
1505316415.9,286046996.7,N
1505316435.7,286046997.9,N
1505316455.5,286046996.1,N
1505316475.4,286046996.4,N
1505316495.2,286046999.5,N
1505316515.0,286047001.0,N
1505316515.9,286047001.0,N
1505316535.8,286046998.4,N
1505316555.6,286046999.1,N
1505316575.4,286046996.6,N
1505316595.3,286046998.4,N
1505316615.1,286046996.8,N
1505316616.0,286046996.8,N
1505316635.8,286046996.9,N
1505316655.7,286046996.6,N
1505316675.5,286046999.4,N
1505316695.3,286047002.6,N
1505316715.2,286047000.6,N
1505316735.9,286046998.8,N
1505316755.7,286047000.7,N
1505316775.5,286047001.6,N
1505316795.4,286046998.6,N
1505316815.2,286047002.0,N
1505316835.0,286047002.6,N
1505316835.9,286047002.6,N
1505316855.8,286047000.2,N
1505316875.6,286047000.1,N
1505316895.4,286046999.3,N
1505316915.3,286046998.0,N
1505316935.1,286046999.1,N
1505316955.8,286046997.9,N
1505316975.7,286047001.8,N
1505316995.5,286047002.6,N
1505317015.3,286046998.7,N
1505317035.2,286047000.6,N
1505317055.9,286047000.9,N
1505317075.7,286046995.2,N
1505317095.6,286046996.4,N
1505317115.4,286046998.8,N
1505317135.2,286046996.5,N
1505317155.0,286046996.9,N
1505317155.9,286046996.9,N
1505317175.8,286046995.2,N
1505317195.6,286046998.8,N
1505317215.4,286046998.6,N
1505317235.3,286046996.7,N
1505317255.1,286047000.4,N
1505317275.8,286046993.3,P
1505317295.7,286046995.8,N
1505317315.5,286046998.8,N
1505317335.3,286046998.0,N
1505317355.2,286046997.9,N
1505317375.9,286046998.3,N
1505317395.7,286046999.0,N
1505317415.6,286047000.7,N
1505317435.4,286046999.2,N
1505317455.2,286046995.1,N
1505317475.1,286046999.3,N
1505317476.0,286046999.3,N
1505317495.8,286046999.6,N
1505317515.6,286047000.2,N
1505317535.4,286047002.4,N
1505317555.3,286046998.4,N
1505317575.1,286047000.2,N
1505317595.8,286046999.5,N
1505317615.7,286046998.8,N
1505317635.5,286046999.2,N
1505317655.3,286046997.8,N
1505317675.2,286046995.4,N
1505317695.9,286046997.1,N
1505317715.7,286046996.7,N
1505317735.6,286046998.6,N
1505317755.4,286046999.4,N
1505317775.2,286046998.3,N
1505317795.1,286046993.8,P
1505317796.0,286046993.8,N
1505317815.8,286046993.4,P
1505317835.6,286046993.1,P
1505317855.5,286046998.2,N
1505317875.3,286047003.9,N
1505317895.1,286047001.7,N
1505317915.9,286047003.8,N
1505317935.7,286047006.5,N
1505317955.5,286047003.2,N
1505317975.4,286047003.4,N
1505317995.2,286047003.1,N
1505318015.0,286047004.3,N
1505318015.9,286047004.3,N
1505318035.1,286047001.9,N
1505318036.0,286047001.9,N
1505318055.8,286047001.6,N
1505318075.6,286047007.3,N
1505318095.5,286047006.2,N
1505318115.3,286047006.4,N
1505318135.1,286047001.4,N
1505318155.9,286047003.9,N
1505318175.7,286047002.2,N
1505318195.5,286046998.1,N
1505318215.4,286046998.5,N
1505318235.2,286047000.8,N
1505318255.0,286047005.7,N
1505318255.9,286047005.7,N
1505318275.8,286047004.5,N
1505318295.6,286047007.1,N
1505318315.4,286047010.4,P
1505318335.3,286047005.9,N
1505318355.1,286046999.9,N
1505318356.0,286046999.9,N
1505318375.8,286047001.6,N
1505318395.7,286047005.5,N
